398  
ASUS41 KPHI 261213  
RWRPHI  
 
REGIONAL WEATHER ROUNDUP  
NATIONAL WEATHER SERVICE MOUNT HOLLY NJ  
800 AM EDT WED SEP 26 2018  
 
NOTE: "FAIR" INDICATES FEW OR NO CLOUDS BELOW 12,000 FEET WITH NO  
SIGNIFICANT WEATHER AND/OR S TO VISIBILITY
.  
 
* = STATION DOES NOT REPORT PRECIPITATION (E.G. RAIN, SNOW, ETC.)  
OR FOG.
 
 
NJZ015>026-261300-  
SOUTHERN NEW JERSEY  
 
CITY SKY/WX TMP DP RH WIND PRES REMARKS
 
POMONA CLOUDY 76 75 97 SW7 30.04S FOG  
6HR MIN TEMP: 74; 6HR MAX TEMP: 76; 6HR PCP: 0.10;  
 
WILDWOOD* CLOUDY 75 74 96 S8 30.05R FOG  
MILLVILLE FOG 73 73 100 SW5 30.04R VSB 1/2  
WRIGHTSTOWN CLOUDY 74 74 100 SW5 30.01R FOG  
MOUNT HOLLY CLOUDY 74 74 100 CALM 30.03S FOG  
TRENTON CLOUDY 73 72 96 SW3 30.03R FOG  
6HR MIN TEMP: 72; 6HR MAX TEMP: 73; 6HR PCP: 0.01;  
 

 
NJZ001>014-261300-  
NORTHERN NEW JERSEY  
 
CITY SKY/WX TMP DP RH WIND PRES REMARKS
 
SUSSEX CLOUDY 64 64 100 CALM 30.02F  
ANDOVER* N/A 65 63 93 CALM 30.03S  
MORRISTOWN PTSUNNY 72 72 100 MISG 30.02F FOG  
NEWARK PTSUNNY 74 72 93 S5 30.02S  
TETERBORO CLOUDY 73 73 100 S7 30.01S FOG  
CALDWELL PTSUNNY 70 70 100 CALM 30.03S FOG  
SOMERVILLE PTSUNNY 71 71 100 CALM 30.01R FOG  
ALLAIRE* CLOUDY 74 73 97 S7 30.06R  
TOMS RIVER* CLOUDY 74 73 97 SW3 30.05R  
 

 
PAZ043-044-047-054-055-060>062-066>071-261300-  
EASTERN PENNSYLVANIA  
 
CITY SKY/WX TMP DP RH WIND PRES REMARKS
 
PHILADELPHIA CLOUDY 73 73 100 S6 30.03S FOG  
6HR MIN TEMP: 71; 6HR MAX TEMP: 73; 6HR PCP: 0.01;  
 
NORTH PHILA CLOUDY 75 73 93 CALM 30.04S FOG  
BLUE BELL* FAIR 70 70 100 CALM 30.05R  
DOYLESTOWN PTSUNNY 72 72 100 VRB3 30.03S  
QUAKERTOWN* CLOUDY 70 70 100 CALM 30.04S  
PERKASIE* CLOUDY 70 70 100 CALM 30.04S FOG  
POTTSTOWN FAIR 71 71 100 VRB3 30.04F FOG  
LANCASTER FAIR 72 71 97 S6 30.01S FOG  
COATESVILLE PTSUNNY 70 70 100 CALM 30.05F FOG  
READING CLOUDY 71 71 100 CALM 30.00S  
6HR MIN TEMP: 63; 6HR MAX TEMP: 71;  
 
ALLENTOWN PTSUNNY 66 63 90 N5 30.02S FOG  
6HR MIN TEMP: 65; 6HR MAX TEMP: 68;  
 
MOUNT POCONO CLOUDY 65 65 100 SW8 30.05F  
6HR MIN TEMP: 65; 6HR MAX TEMP: 67;  
 
LEHIGHTON CLOUDY 64 64 100 CALM 30.03S FOG  
WILKES BARRE CLOUDY 72 67 84 SW5 29.99S  
 

 
DEZALL-MDZ008-012-015-019-020-261300-  
DELAWARE AND EASTERN MARYLAND  
 
CITY SKY/WX TMP DP RH WIND PRES REMARKS
 
WILMINGTON LGT RAIN 73 72 96 W6 30.04R FOG  
6HR MIN TEMP: 72; 6HR MAX TEMP: 73;  
 
GEORGETOWN CLOUDY 74 74 100 S6 30.05R FOG  
6HR MIN TEMP: 73; 6HR MAX TEMP: 74;  
 
EASTON CLOUDY 75 75 100 S5 30.07R FOG  
PATUXENT PTSUNNY 78 73 84 SW3 30.03  
OCEAN CITY CLOUDY 76 74 93 SW7 30.04S  
WALLOPS ISLAND CLOUDY 77 74 90 S8 30.04S FOG  
SALISBURY FOG 74 74 100 S6 30.04R VSB 1/2  
 

 
PAZ001-021-NYZ056-072-MDZ011-DCZ001-261300-  
OTHER NEARBY LOCATIONS  
 
CITY SKY/WX TMP DP RH WIND PRES REMARKS
 
HARRISBURG CLOUDY 70 69 97 SE3 29.99S FOG  
STATE COLLEGE LGT RAIN 68 66 94 S7 29.98S  
WILLIAMSPORT CLOUDY 70 67 90 E8 29.94F  
BINGHAMTON FAIR 68 65 90 SW12G22 29.96S  
NEW YORK CITY LGT RAIN 73 72 96 VRB3 30.05  
BALTIMORE PTSUNNY 73 72 96 SW3 30.02R FOG  
WASHINGTON DC CLOUDY 73 70 90 S7 30.02S  
 

 
 
 
CLICK HERE TO GO TO PREVIOUS BULLETINS.

The Nexlab PA Page
The Nexlab NJ Page
The Nexlab DE Page
The Nexlab MD Page Main Text Page